Location: Newark
(45.8944°N, 12.5886°E)
Time: 20:21:23
(UTC+00:00)

CAS-4B - Visible Passes

Search period start: 28 March 2020 00:00
Search period end: 07 April 2020 00:00
Orbit: 528 x 545 km, 43.0° (Epoch: 28 March)

Date Brightness Start Highest point End Pass type
(mag) Time Alt. Az. Time Alt. Az. Time Alt. Az.
28 Mar ? 02:51:16 15° SSE 02:51:16 15° SSE 02:52:12 10° SSE visible
01 Apr ? 19:15:26 10° SSW 19:16:35 14° S 19:16:35 14° S visible
02 Apr ? 19:04:45 10° SSW 19:07:42 21° SSE 19:07:42 21° SSE visible
03 Apr ? 18:54:09 10° SSW 18:57:32 25° SSE 18:58:37 22° SE visible
03 Apr ? 20:33:14 10° WSW 20:34:00 15° WSW 20:34:00 15° WSW visible
04 Apr ? 18:43:38 10° SW 18:47:13 29° SSE 18:49:21 18° ESE visible
04 Apr ? 20:22:56 10° WSW 20:24:44 24° WSW 20:24:44 24° WSW visible
05 Apr ? 18:33:10 10° SW 18:36:53 33° SSE 18:39:56 14° E visible
05 Apr ? 20:12:39 10° WSW 20:15:18 36° WSW 20:15:18 36° WSW visible
06 Apr ? 18:22:45 10° SW 18:26:34 38° SSE 18:30:23 10° E visible
06 Apr ? 20:02:23 10° WSW 20:05:45 50° SW 20:05:45 50° SW visible
